EXPRESS-AM7

Last updated on Oct. 1, 2020, 5:42 a.m. UTC

1 40505U 15012A   20274.79673471  .00000137  00000-0  00000+0 0  9992
2 40505   0.0237 189.4393 0003015 359.2224 148.1286  1.00268918 20446
UTC
Height (km)
Latitude
Longitude
Inclination
Orbital Period
UTC large
Height (km)
Speed (km/s)
/
Latitude / Longitude
Inclination (degrees)
Orbital Period (minutes)
Azimuth
Elevation
Range (km)
Doppler Factor
iOS Compass Heading
iOS Angle

Next 30 passes for location: Hong Kong

Rise time Rise Azimuth (degrees) Set time Set Azimuth (degrees) Duration Max altitude (degrees)

No matching passes for this satellites